Погода Купино

Погода Купино : погода сейчас, прогноз погоды и архив. Всё, что Вы хотите узнать о погоде Купино!

Хотите узнать прогноз погоды Купино? Тогда Вам сюда: Погода Купино

Поиск расширенной информации на нашем сайте:

Полезная информация: Сауны и бани воронежа цены.

Другие новости

Новости СМИ2

Главная страница сайта

Новости сайта

02.10.2013

Напоминаем, что на нашем новом сайте вы можете получить высокодетализированные прогнозы погоды по пунктам России, СНГ и мира (включающие важные для авиации метеовеличины, такие как направление и скорость ветра, видимость, явления погоды, количество и форма облачности, нижняя и верхняя граница облачности), а также ознакомиться с разнообразными материалами по авиационной метеорологии и подборкой полезных ссылок на эту тему.

Сайт Метеоцентр.Азия посвящён разработке технологий оптимизации авиаметеорологического обслуживания, включая проектирование и перспективное создание нескольких автоматизированных авиаметеорологических систем:
- система выпуска высокодетальных прогностических карт явлений погоды для нижнего воздушного пространства по России и ближнему зарубежью;
- система верификации прогнозов TAF (выпускаемых синоптиками официальных АМСГ РФ и ближнего зарубежья) и AUTOTAF (выпускаемых сайтом Метеоцентр.Азия) - выявление ошибок, онлайн-сопоставление с фактической погодой METAR, автоматическое внесение коррективов в прогнозы при резком отклонении фактической погоды от прогноза, подсчёт оправдываемости прогнозов по элементам и в целом;
- система обработки, анализа и отображения авиаметеорологической информации для применения провайдерами метеорологической информации.

Рекомендуем: Откачка ям - выгребная яма на 3 куба откачка www.don-p.ru.

Погода Купино - сегодня

Время (UTC), дата Ветер
(°,м/с) 
Видим.   Явления Облачность Т
(°С)
Тd
(°С)
f(%) Тe
(°С)
Pmin
(гПа)
dP
(гПа)
Po
(мм)
O2
(г/м3)
Тmin Tmax R s Состояние
почвы
18 27.04.17 280 (З) 20000 м    10/10 1000 м 
[Sc]
+10.2 +8.6 90 +10  1018.7  1.5  754  291           
21 27.04.17 030 (СВ) 20000 м    10/10 1000 м 
[Sc]
+8.2 +5.2 81 +7  1020.1  1.2  755  294           
00 28.04.17 030 (СВ) 20000 м    10/10 1000 м 
[Sc]
+7.1 +4.8 85 +6  1021.9  1.7  756  296  +7.1         
03 28.04.17 030 (СВ) 20000 м  {ливн. осадки}  10/10 300 м кучево-дожд. 
[Cb calv]
+7.1 +4.1 81 +6  1022.6  0.7  756  296  +6.3         
06 28.04.17 350 (С) 20000 м  {ливн. осадки}  10/10 600 м кучево-дожд. 
[Cb calv]
+8.9 +4.1 72 +8  1023.1  0.6  757  295           
09 28.04.17 310 (СЗ) 20000 м    9/9 600 м кучево-дожд. 
[Cb calv]
+11.2 +3.9 61 +11  1022.3  -0.7  756  292           
12 28.04.17 290 (З) 20000 м    10/8 1000 м средняя, верхняя 
[Sc|Ac trans|Ci fib]
+12.1 +2.9 53 +12  1021.6  -0.6  756  291    +12.9  0.0     
15 28.04.17 240 (ЮЗ) 20000 м    10/0 верхняя 
[Ci fib]
+8 +2.5 68 +7  1022.2  0.4  756  296           
18 28.04.17 240 (ЮЗ) 20000 м    ясно 
+4.2 +0.9 79 +3  1022.3  -0.1  756  300           
21 28.04.17 240 (ЮЗ) 20000 м    ясно 
+3.8 -0.5 73 +3  1022  -0.4  756  300           
00 29.04.17 230 (ЮЗ) 20000 м    3/0 верхняя 
[Ci fib]
+4.5 -0.5 70 +3  1021.1  -0.8  755  299  +2.5         
03 29.04.17 250 (З) 7-10{10}  20000 м    4/0 верхняя 
[Ci fib]
+14.6 -1.6 33 +14  1020  -0.6  755  289           
06 29.04.17 250 (З) 10-14{16}  20000 м    10/0 верхняя 
[Ci fib]
+19.6 +0.1 27 +19  1017.7  -2  753  283           
09 29.04.17 250 (З) 10-16{16}  20000 м    10/3 1000 м верхняя 
[Sc diur, vesp|Ci fib]
+21.4 +1.3 26 +21  1015.3  -2.3  751  281           
12 29.04.17 030 (СВ) 5{16}  20000 м    10/10 600 м кучево-дожд. 
[Cb calv]
+12 +4.5 60 +11  1017.4  1.6  753  290    +21.6       
15 29.04.17 060 (СВ) 20000 м    10/10 600 м кучево-дожд. 
[Cb calv]
+9.2 +3.7 68 +10  1019.1  1.5  754  293           
18 29.04.17 тихо ()   20000 м    10/10 600 м кучево-дожд. 
[Cb calv]
+4 +2.6 91 +4  1019.9  0.5  754  299           
21 29.04.17 280 (З) 20000 м    10/10 600 м кучево-дожд. 
[Cb calv]
+5.3 +3.2 86 +6  1019.2  -0.5  754  297           
00 30.04.17 320 (СЗ) 20000 м    10/10 600 м кучево-дожд. 
[Cb calv]
+5.6 -0.4 65 +5  1019.4  0.2  754  298  +3.1         
03 30.04.17 020 (С) 20000 м    3/0 верхняя 
[Ci fib]
+10.1 -3.5 38 +10  1019.2  -0.1  754  293           
06 30.04.17 350 (С) 20000 м    10/10 600 м кучево-дожд. 
[Cb calv]
+11.5 -5.4 30 +10  1018.7  -0.3  754  292           
09 30.04.17 360 (С) 8-11{16}  10 км  слаб. ливневой дождь со снегом  10/10 600 м кучево-дожд. 
[Cb calv]
+1.5 +0.4 92 -2  1022.1  2.8  756  303           
12 30.04.17 350 (С) 10-14{16}  20000 м  {ливн. осадки}  9/9 600 м кучево-дожд. 
[Cb calv]
+6 -4.4 47 +3  1023.1  1.2  757  299    +12.9     
15 30.04.17 360 (С) 7-11{16}  20000 м    8/8 1000 м 
[Sc diur, vesp]
+3 -7 48 1025.9  2.7  759  303           
18 30.04.17 320 (СЗ) 3{12}  20000 м    ясно 
-1.1 -5.8 70 -3  1027.8  1.6  760  308           
Время (UTC), дата Ветер
(°,м/с) 
Видим.   Явления Облачность Т
(°С)
Тd
(°С)
f(%) Тe
(°С)
Pmin
(гПа)
dP
(гПа)
Po
(мм)
O2
(г/м3)
Тmin Tmax R s Состояние
почвы

Для получения пояснительной информации подведите курсор к названию столбца.

ПОГОДА Купино - архив

Всё, что Вы хотите узнать о погоде Купино - удобно и подробно!

Выберите нужную дату (начиная с 1 января 2015* года) и нажмите кнопку "Найти".
Будут отображены архивные сводки погоды по пункту Купино, начиная с указанной даты.


Отображать данные в формате CSV (для использования в таблицах Excel)


Внимание! Наш архив погоды предназначен исключительно для личного некоммерческого использования в познавательных целях. Если Вам необходимы официальные справки о состоянии погоды (для производственных, юридических, коммерческих и т.п. целей), обращайтесь в органы Росгидромета.

*Примечание: данная дата относится к архиву по метеостанциям СССР (Россия, СНГ, Балтия).
Архив по метеостанциям Зарубежной Европы и Азии (кроме Китая) хранится 10 дней, по другим регионам земного шара (Китай, Африка, Америка, Австралия, Океания) - 1 день.

Купино - район местоположения метеостанции


Название, широта, долгота, высота метеостанции:
Купино 54.4°ш. 77.3°д. 115 м над ур. моря [Российская Федерация]

Дополнительная информация

В oтличие oт бoльшинства пoгoдных сайтoв мы публикуем пoдрoбную метеoинфoрмацию в детальнoм прoфессиoнальнoм фoрмате.

Характеристики температуры и влажнoсти вoздуха измеряются на высoте 2 м в тени вдали oт зданий и деревьев.
Скoрoсть ветра измеряется на высoте 10 м (на урoвне рoста челoвека скoрoсть ветра ниже в 1.5-2 раза). Если метеoстанция нахoдится в гoрoде или в лесу, тo скoрoсть ветра занижена на 2-4 м/с пo сравнению с oткрытым местoм. Скoрoсть ветра над акватoриями крупных рек и oзёр, а также на вершинах хoлмoв на 2-5 м/с выше, чем в oбычных услoвиях.
Атмoсфернoе давление в разных тoчках местнoсти мoжет значительнo oтличаться oт давления на метеoстанции, в зависимoсти oт услoвий рельефа (при пoдъёме на 10 м давление пoнижается примернo на 1 мм рт.ст.).